STARLINK-1903, 46764

Orbit data source: Space-Track

STARLINK-1903, 46764 is a payload satellite owned by SpaceX/Seattle (US) in LEO that was launched on Sat, 24 Oct 2020 UTC via an FALCON 9 launch vehicle from the Air Force Eastern Test Range (AFETR). Payload-class satellites include a variety of spacecraft equipped with specific instruments for various scientific and technological missions. These include communications satellites like Starlink; space stations such as the ISS; scientific satellites like the Hubble; Earth observation satellites from companies like Planet Labs, Umbra, and HawkEye 360; GPS; miniature CubeSats for education and research; and military/defense satellites.

Loading next visibility...
Identifier
46764, 2020-074AB
Orbit
LEO
Country
Flag of USUS
Related business
Manufacturer
SpaceX/Seattle
Mission
Partially operational Commercial Communications
Bus & Motor
STARLINK, Unknown motor
Mass
260 kg wet, ~248 kg dry
Launch date (UTC)
2020-10-24 (5 years ago)
Launch vehicle
FALCON 9
Launch site
Air Force Eastern Test Range (AFETR)
Object type
Payload
Rocket body
Debris
Shape & HBR
Box + 1 Pan, 4.4 m
Radar Cross Section
13.562 m², Large (>1 m²)

Expand to show TLE details & history
Last TLE update: 16 hours ago

TLE from 16 hours ago
0 STARLINK-1903
1 46764U 20074AB  25242.68749822  .00116623  00000-0  12075-2 0  9997
2 46764  53.0252  41.8006 0001980 337.5434  22.5493 15.63864012268694
Epoch: 2025-08-30T16:29Z
TLE epoch observation values (Epoch: 2025-08-30T16:29:59.846Z)
Latitude
0.00002°
Longitude
175.18304°
Altitude
376.171 km
Speed
7.686 km/s
True Right ascension
02h 47m 12s
True Declination
0° 00' 00"
Sunlit
Object was in full shadow at epoch
Visualization orbit readout
Latitude
Unknown
Longitude
Unknown
Altitude
Unknown
Speed
Unknown
Apparent Right ascension
Unknown
Apparent Declination
Unknown
Sunlit
N/A
Visualization observer readout
Local Sidereal Time
23:56:26
Azimuth
Unknown
Elevation
Unknown
Doppler factor
Unknown
Orbital elements
Apogee altitude
378.127 km
Perigee altitude
375.453 km
Semi-major axis
6,754.927 km
Eccentricity
0.0002
Inclination
53.0252°
RAAN
41.8006°
Arg. of periapsis
337.5434°
True anomaly
22.558°
Mean anomaly
22.5493°
Eccentric anomaly
22.55365°
Mean motion
3.90942 °/min
Orbital period
92.09 mins
BSTAR
0.0012075
Loading maneuver chart data...
Computing Atmospheric mass density...

Documentation

Showing up to 5 results
|